Weather History for Luxeuil, France

Change the Weather History Date:

Thursday, February 28, 2013

  Actual Average Record
Temperature  
Mean Temperature 37 °F -  
Max Temperature 46 °F 50 °F 60 °F (1997)
Min Temperature 26 °F 33 °F 15 °F (2005)
Degree Days  
Heating Degree Days 28    
Moisture  
Dew Point 31 °F    
Average Humidity 80    
Maximum Humidity 93    
Minimum Humidity 53    
Precipitation  
Precipitation 0.00 in - - ()
Sea Level Pressure  
Sea Level Pressure 30.21 in    
Wind  
Wind Speed 1 mph ()    
Max Wind Speed 7 mph    
Max Gust Speed -    
Visibility 4.4 miles    
Events Fog    
Averages and records for this station are not official NWS values.
T = Trace of Precipitation, MM = Missing Value Source: Averaged Metar Reports

Daily Weather History Graph

Daily Weather History Graph

Search for Another Location

Airport:

Trip Planner

Search our weather history database for the weather conditions in past years. The results will help you decide how hot, cold, wet, or windy it might be!

Date:

Astronomy

Feb. 28, 2013 Rise Set
Actual Time 7:17 AM CET 6:17 PM CET
Civil Twilight 6:46 AM CET 6:48 PM CET
Nautical Twilight 6:10 AM CET 7:24 PM CET
Astronomical Twilight 5:34 AM CET 8:00 PM CET
Moon 9:45 PM CET (2/28) 8:01 AM CET (2/28)
Length of Visible Light 12h 02m
Length of Day
11h 00m
Waning Gibbous, 92% of the Moon is Illuminated
Feb 28
Waning Gibbous
Mar 4
Last Quarter
Mar 11
New
Mar 19
First Quarter
Mar 27
Full

Hourly Weather History & Observations

Time (CET) Temp. Windchill Dew Point Humidity Pressure Visibility Wind Dir Wind Speed Gust Speed Precip Events Conditions
12:00 AM 35.6 °F - 32.0 °F 87% 30.27 in - Calm Calm - N/A   Overcast
12:30 AM 35.6 °F - 32.0 °F 87% 30.27 in - Calm Calm - N/A   Overcast
1:00 AM 35.6 °F - 32.0 °F 87% 30.27 in 3.1 mi Calm Calm - N/A   Overcast
1:30 AM 35.6 °F - 32.0 °F 87% 30.27 in 3.7 mi Calm Calm - N/A   Overcast
2:00 AM 35.6 °F - 32.0 °F 87% 30.24 in 3.7 mi Calm Calm - N/A   Overcast
2:30 AM 35.6 °F - 32.0 °F 87% 30.24 in 3.1 mi Calm Calm - N/A   Overcast
3:00 AM 35.6 °F - 32.0 °F 87% 30.24 in - Calm Calm - N/A   Overcast
3:30 AM 35.6 °F - 32.0 °F 87% 30.24 in 3.1 mi West 2.3 mph - N/A   Overcast
4:00 AM 35.6 °F - 32.0 °F 87% 30.24 in - West 2.3 mph - N/A   Overcast
4:30 AM 33.8 °F - 32.0 °F 93% 30.21 in - Calm Calm - N/A   Overcast
5:00 AM 33.8 °F - 32.0 °F 93% 30.21 in - Calm Calm - N/A   Overcast
5:30 AM 33.8 °F - 32.0 °F 93% 30.21 in - West 2.3 mph - N/A   Overcast
6:00 AM 33.8 °F - 32.0 °F 93% 30.21 in - West 2.3 mph - N/A   Overcast
6:30 AM 33.8 °F - 32.0 °F 93% 30.21 in 1.7 mi Calm Calm - N/A   Overcast
7:00 AM 33.8 °F - 32.0 °F 93% 30.21 in 1.7 mi West 1.2 mph - N/A   Overcast
7:30 AM 33.8 °F - 32.0 °F 93% 30.21 in - Calm Calm - N/A   Overcast
8:00 AM 33.8 °F - 32.0 °F 93% 30.21 in - Calm Calm - N/A   Overcast
8:30 AM 33.8 °F - 32.0 °F 93% 30.24 in 1.8 mi Calm Calm - N/A   Overcast
9:00 AM 33.8 °F - 32.0 °F 93% 30.24 in 1.9 mi Calm Calm - N/A   Overcast
9:30 AM 35.6 °F - 33.8 °F 93% 30.24 in - Calm Calm - N/A   Overcast
10:00 AM 35.6 °F - 33.8 °F 93% 30.24 in - Calm Calm - N/A   Overcast
10:30 AM 35.6 °F - 33.8 °F 93% 30.21 in - Calm Calm - N/A   Overcast
11:00 AM 37.4 °F - 33.8 °F 87% 30.24 in 3.1 mi Calm Calm - N/A   Overcast
11:30 AM 39.2 °F - 33.8 °F 81% 30.21 in 5.0 mi Variable 1.2 mph - N/A   Overcast
12:00 PM 41.0 °F 37.1 °F 32.0 °F 70% 30.21 in 6.2 mi Variable 5.8 mph - N/A   Overcast
12:30 PM 41.0 °F 36.4 °F 30.2 °F 65% 30.21 in 6.2 mi ESE 6.9 mph - N/A   Overcast
1:00 PM 42.8 °F 39.3 °F 30.2 °F 61% 30.21 in 6.2 mi East 5.8 mph - N/A   Overcast
1:30 PM 44.6 °F 42.2 °F 30.2 °F 57% 30.21 in 6.2 mi South 4.6 mph - N/A   Overcast
2:00 PM 42.8 °F 38.6 °F 28.4 °F 57% 30.21 in 6.2 mi South 6.9 mph - N/A   Overcast
2:30 PM 42.8 °F - 30.2 °F 61% 30.18 in 6.2 mi Variable 2.3 mph - N/A   Partly Cloudy
3:00 PM 46.4 °F 44.3 °F 30.2 °F 53% 30.18 in 6.2 mi East 4.6 mph - N/A   Mostly Cloudy
3:30 PM 46.4 °F 45.2 °F 30.2 °F 53% 30.18 in 6.2 mi Variable 3.5 mph - N/A   Mostly Cloudy
4:00 PM 46.4 °F - 30.2 °F 53% 30.18 in 6.2 mi Variable 1.2 mph - N/A   Unknown
4:30 PM 44.6 °F - 30.2 °F 57% 30.18 in 6.2 mi Variable 1.2 mph - N/A   Unknown
5:00 PM 44.6 °F 41.4 °F 30.2 °F 57% 30.18 in 6.2 mi NNW 5.8 mph - N/A   Partly Cloudy
5:30 PM 42.8 °F 39.3 °F 30.2 °F 61% 30.18 in 6.2 mi NNW 5.8 mph - N/A   Partly Cloudy
6:00 PM 41.0 °F 38.0 °F 30.2 °F 65% 30.18 in 6.2 mi North 4.6 mph - N/A   Unknown
6:30 PM 39.2 °F 35.0 °F 30.2 °F 70% 30.18 in 6.2 mi NNE 5.8 mph - N/A   Unknown
7:00 PM 37.4 °F - 30.2 °F 75% 30.18 in 5.6 mi Variable 2.3 mph - N/A   Unknown
7:30 PM 35.6 °F - 28.4 °F 75% 30.18 in 6.2 mi Calm Calm - N/A   Unknown
8:00 PM 33.8 °F - 26.6 °F 75% 30.18 in 5.6 mi Calm Calm - N/A   Unknown
8:30 PM 32.0 °F - 26.6 °F 80% 30.18 in 4.3 mi Calm Calm - N/A   Unknown
9:00 PM 32.0 °F - 26.6 °F 80% 30.18 in - Calm Calm - N/A   Mist
9:30 PM 30.2 °F - 26.6 °F 86% 30.18 in 3.7 mi Calm Calm - N/A   Unknown
10:00 PM 28.4 °F - 26.6 °F 93% 30.18 in 1.0 mi Calm Calm - N/A   Mist
10:30 PM 28.4 °F - 24.8 °F 86% 30.18 in 0.8 mi Calm Calm - N/A   Mist
11:00 PM 28.4 °F - 26.6 °F 93% 30.18 in - Calm Calm - N/A   Mist
11:30 PM 26.6 °F - 24.8 °F 93% 30.18 in 0.3 mi Calm Calm - N/A Fog Fog